Wind_Speed
19 13 11 8 6 9 13 19 22 21 19 25 30 33 32 32 34 34 35 37 44 52 60 71 57 53 51 55 62 68 65 64 62 57 59 55 42 44 50 54 60 64 48
9 6 4 5 10 15 19 21 18 20 24 29 33 28 24 26 28 30 34 39 46 54 63 54 50 41 37 40 45 57 66 62 62 56 54 57 56 32 37 43 47 37 32
7 3 5 9 14 18 19 18 21 24 27 31 23 18 22 24 28 33 36 41 47 53 60 50 43 35 32 28 30 42 56 58 56 54 52 60 63 67 55 34 56 61 37
5 5 9 13 17 18 18 21 24 27 29 22 15 18 21 25 30 35 36 40 46 52 59 52 37 29 25 20 13 16 41 48 47 46 50 54 54 61 59 56 33 46 43
7 9 13 16 17 18 21 24 27 27 23 15 19 20 25 28 30 31 36 40 44 51 55 55 39 34 24 18 11 6 30 41 45 38 46 51 58 54 62 54 48 36 47
10 14 18 19 18 21 24 26 28 23 16 17 19 20 26 27 27 29 35 40 42 46 49 52 48 34 28 18 13 2 17 28 35 37 35 45 52 61 59 67 67 33 41
15 19 20 20 21 23 25 26 26 19 16 18 20 22 25 24 25 28 32 36 39 40 44 45 46 40 28 22 14 8 7 15 24 29 33 39 46 51 60 68 66 57 56
19 21 20 20 23 24 25 25 20 17 17 20 22 23 25 24 24 25 28 31 35 37 39 39 40 38 33 23 15 9 3 8 16 21 27 33 39 43 50 59 65 64 61
19 20 22 23 25 25 26 22 18 18 20 20 23 25 24 24 25 25 26 27 30 31 34 36 35 34 31 25 19 10 5 4 10 16 23 30 37 42 45 49 51 53 50
22 23 25 26 27 27 26 22 20 21 23 24 24 25 26 27 28 26 27 27 29 30 29 29 30 29 27 26 20 13 9 8 10 16 23 30 35 40 42 44 41 43 46
25 28 31 30 29 27 25 24 24 26 27 27 27 28 30 31 32 33 31 31 31 31 31 29 25 25 25 21 20 20 16 12 9 12 17 23 28 34 40 41 42 43 44
29 32 33 34 34 31 28 27 28 28 29 31 34 33 33 35 36 37 38 36 34 35 35 32 30 26 23 21 19 16 15 17 16 13 13 14 18 19 21 32 39 41 44
32 31 33 34 33 32 30 30 31 32 33 34 37 39 39 39 40 42 43 43 42 40 39 37 35 31 28 25 23 19 18 17 17 18 17 16 14 14 15 20 28 33 30
29 32 34 34 33 33 33 35 36 37 38 40 41 42 43 44 46 47 47 48 48 48 45 42 40 37 34 32 28 27 25 23 21 20 20 19 19 18 17 17 19 26 30
32 32 33 35 36 37 38 39 40 41 42 43 46 48 48 48 47 48 51 52 54 52 50 48 44 40 39 37 35 33 32 31 29 28 26 25 25 25 25 25 25 27 30
35 37 40 41 41 43 43 44 45 46 47 48 48 49 50 49 49 47 45 47 49 49 49 46 45 44 41 41 38 36 35 35 33 34 34 34 32 30 31 34 35 37 38
40 41 43 43 45 46 47 48 48 49 49 49 51 51 50 48 48 49 48 50 51 49 48 46 45 44 44 42 42 41 39 40 38 38 38 38 37 39 39 37 37 41 44
45 44 45 45 45 47 47 47 46 46 48 47 50 48 44 47 50 49 50 51 53 52 50 49 49 48 46 46 43 43 43 41 43 44 43 41 41 41 41 40 43 46 46
40 42 43 45 46 47 48 48 49 50 53 55 56 57 56 55 56 55 54 54 55 55 55 54 52 50 50 50 49 49 49 48 45 47 47 45 42 43 44 44 45 48 51
49 51 51 52 53 54 55 57 57 57 57 58 60 63 65 66 65 64 59 58 58 58 59 56 55 55 54 51 53 53 56 54 53 47 51 46 46 46 47 48 50 49 51
52 53 54 56 57 59 61 62 63 65 65 67 68 69 70 71 71 70 69 67 63 62 61 60 58 57 57 58 58 57 55 54 52 51 52 52 50 50 52 53 52 52 50
58 60 61 63 67 69 69 69 71 71 72 73 73 73 74 73 73 73 72 69 67 65 63 63 62 58 58 58 57 54 54 54 53 52 54 51 51 50 53 50 51 47 51
69 70 71 72 73 74 75 75 76 77 77 76 74 73 71 70 68 67 67 66 66 64 63 62 62 60 60 60 60 58 58 54 51 51 52 48 49 49 49 51 46 49 49
77 78 78 78 78 78 77 77 76 75 74 73 71 69 66 63 62 61 63 64 63 62 59 59 60 62 61 61 61 59 57 55 53 52 51 48 49 46 46 44 47 45 45
79 78 79 76 74 73 71 69 69 68 68 68 67 66 65 62 60 60 60 59 60 60 58 57 58 59 59 59 58 57 55 54 54 54 48 48 46 43 43 45 46 44 43
79 78 77 76 73 71 69 66 65 65 64 63 63 62 61 59 58 58 58 58 54 51 52 56 58 57 60 61 59 57 53 53 52 47 46 46 39 41 42 42 41 42 41
Wind_Direction
292 287 279 273 290 305 311 312 310 316 318 320 321 320 318 318 318 318 321 324 326 319 316 309 307 298 289 273 258 244 237 235 234 238 242 237 241 240 247 249 247 254 248
268 242 226 298 312 312 310 312 315 315 318 321 322 323 328 332 335 337 338 340 335 335 329 327 320 312 296 285 260 239 228 226 226 230 235 233 227 232 235 247 242 245 228
194 224 291 310 309 310 315 316 314 315 318 320 323 330 335 335 335 337 340 345 345 344 343 343 331 328 324 303 266 240 223 220 219 223 228 231 234 234 242 252 242 244 239
223 273 305 308 311 314 317 314 314 315 317 319 317 320 327 331 332 336 342 347 350 353 352 0 347 354 351 353 335 247 212 213 214 218 222 230 237 236 231 248 244 239 255
254 294 309 311 312 312 315 318 319 316 318 297 306 315 327 334 344 345 349 351 354 358 1 5 5 5 9 10 1 255 207 209 210 217 224 230 233 235 235 248 255 258 253
285 306 310 309 310 313 316 317 319 316 303 294 306 318 333 337 343 347 353 358 359 0 6 7 14 15 23 30 31 63 203 209 212 219 225 231 235 233 236 241 245 271 265
302 303 299 301 308 316 318 318 316 310 295 293 301 312 327 330 338 347 349 355 1 4 5 12 14 16 20 29 41 74 171 212 218 220 232 236 238 240 243 239 250 253 248
295 292 296 300 307 312 317 313 308 296 290 297 303 310 318 318 322 333 343 351 358 3 8 10 16 19 19 21 30 49 109 199 216 229 238 242 246 248 254 251 250 263 267
290 292 296 302 307 309 308 305 296 291 292 304 305 311 311 312 313 323 334 344 351 358 4 9 12 16 20 23 19 10 345 274 247 244 247 252 250 252 258 258 263 266 266
291 295 297 301 302 304 301 296 289 289 290 298 304 303 302 301 304 308 317 329 338 346 354 1 6 10 14 14 20 22 3 321 280 266 263 260 260 259 259 259 261 262 265
287 294 296 295 296 294 287 284 279 284 286 288 295 298 298 299 300 304 309 317 324 330 335 341 350 355 2 4 5 359 359 356 323 289 278 279 276 269 261 255 255 257 258
285 289 287 288 287 282 278 277 279 285 289 291 295 296 298 298 300 302 304 306 310 316 320 324 327 331 335 343 349 347 341 333 327 326 322 309 303 304 281 255 250 251 256
294 285 281 280 279 275 275 280 281 282 287 291 292 293 295 295 295 296 298 301 303 307 311 314 315 318 317 318 317 319 321 316 312 312 312 308 310 305 296 272 254 257 257
286 281 278 277 276 274 274 275 279 281 284 287 290 292 296 296 296 294 296 297 299 302 304 306 307 309 311 309 308 305 301 301 300 296 293 294 298 297 289 281 259 250 260
294 286 283 282 280 277 277 278 280 283 287 289 292 293 293 292 292 295 296 296 297 299 302 304 303 302 302 303 302 298 298 295 294 292 294 291 287 284 283 279 269 264 264
285 283 283 283 283 283 284 286 286 287 288 288 289 290 291 293 296 297 299 299 296 298 300 301 302 302 300 300 297 294 294 296 294 291 289 285 284 286 284 279 278 276 275
284 284 282 284 288 289 292 294 293 293 295 296 294 292 293 295 294 295 296 295 294 294 294 294 296 297 297 297 297 295 294 291 289 294 290 285 282 278 277 278 284 281 275
284 284 283 286 287 287 290 294 295 294 293 294 293 293 294 296 297 299 298 293 292 293 291 290 291 293 293 292 291 292 292 291 287 285 292 286 280 279 277 277 279 280 284
282 283 286 288 288 288 289 292 293 293 294 294 294 293 293 294 294 296 296 295 292 291 290 291 291 289 291 292 292 289 290 288 285 285 290 285 281 279 276 275 277 275 275
284 285 288 289 288 288 289 290 290 289 288 289 290 291 292 292 291 290 290 290 289 289 289 288 287 288 289 288 287 286 287 289 287 288 283 282 278 280 278 274 281 278 277
282 283 284 285 286 286 287 287 287 287 288 288 289 288 288 289 291 292 293 291 289 288 288 291 288 286 284 286 287 287 287 288 283 288 289 289 278 276 282 281 282 280 279
285 286 285 285 285 286 285 285 286 287 288 289 291 291 289 288 288 287 287 286 286 285 284 283 284 286 289 290 287 286 286 285 286 288 289 291 286 283 280 283 280 279 283
287 286 286 286 288 288 288 288 288 289 290 291 291 290 290 289 288 287 285 283 281 280 279 277 276 276 278 282 283 283 281 281 285 285 286 286 288 288 281 281 280 283 278
290 291 292 293 293 293 293 293 292 292 292 292 293 292 291 288 285 282 280 279 279 278 277 277 278 279 279 279 279 280 281 281 281 283 284 285 286 282 282 280 278 276 277
295 295 295 295 294 294 294 294 293 293 292 292 292 291 291 290 288 285 282 281 278 275 274 277 277 277 282 282 281 280 282 282 284 286 284 282 280 278 276 275 276 277 276
291 292 292 294 294 294 293 293 293 292 292 292 292 291 291 289 288 285 282 281 280 277 272 272 272 276 278 277 280 281 280 281 284 280 280 278 275 277 275 274 275 276 277
Height
5786 5785 5784 5783 5782 5781 5780 5777 5774 5772 5769 5765 5760 5754 5749 5744 5738 5733 5727 5721 5711 5700 5682 5660 5639 5628 5620 5617 5621 5634 5648 5660 5672 5680 5692 5703 5708 5706 5714 5716 5721 5720 5728
5782 5782 5782 5781 5780 5779 5776 5773 5770 5768 5764 5760 5754 5749 5745 5740 5734 5728 5722 5713 5702 5687 5665 5641 5625 5611 5602 5598 5596 5605 5624 5639 5651 5666 5678 5687 5693 5695 5697 5705 5705 5700 5697
5780 5780 5780 5779 5777 5775 5772 5769 5766 5763 5759 5754 5749 5746 5741 5736 5730 5724 5716 5706 5694 5677 5656 5631 5616 5603 5594 5584 5581 5588 5606 5624 5639 5653 5666 5673 5679 5685 5689 5692 5695 5697 5694
5779 5778 5777 5776 5773 5771 5769 5765 5762 5758 5753 5749 5746 5742 5738 5733 5727 5720 5712 5701 5688 5672 5652 5629 5615 5602 5593 5585 5581 5583 5598 5615 5631 5642 5652 5661 5667 5675 5681 5680 5684 5687 5687
5776 5775 5774 5772 5770 5767 5765 5761 5757 5752 5749 5745 5742 5739 5735 5730 5724 5717 5708 5698 5685 5670 5653 5633 5617 5606 5597 5592 5590 5593 5601 5614 5627 5638 5646 5653 5659 5668 5671 5672 5674 5677 5680
5773 5771 5769 5767 5765 5763 5759 5756 5752 5748 5745 5742 5739 5735 5731 5726 5720 5713 5704 5694 5683 5671 5657 5642 5626 5615 5607 5602 5602 5602 5609 5618 5629 5638 5644 5650 5655 5659 5662 5665 5669 5670 5673
5770 5768 5765 5763 5760 5758 5754 5750 5747 5743 5740 5737 5734 5730 5727 5722 5716 5709 5701 5692 5683 5673 5661 5649 5638 5627 5619 5614 5612 5613 5618 5625 5632 5638 5643 5647 5651 5654 5657 5658 5660 5661 5664
5765 5763 5761 5758 5756 5753 5750 5746 5742 5739 5736 5733 5730 5726 5722 5717 5712 5705 5698 5691 5683 5674 5666 5656 5648 5640 5633 5626 5623 5622 5625 5628 5633 5638 5641 5644 5646 5649 5650 5650 5653 5655 5657
5760 5758 5756 5754 5751 5748 5745 5741 5738 5735 5732 5729 5725 5722 5717 5713 5707 5701 5694 5688 5682 5675 5667 5660 5654 5647 5643 5638 5633 5631 5631 5632 5634 5636 5638 5640 5641 5642 5642 5642 5643 5643 5647
5756 5753 5751 5749 5746 5743 5740 5736 5733 5730 5727 5724 5720 5716 5712 5707 5702 5697 5691 5686 5680 5675 5669 5663 5657 5652 5647 5644 5641 5638 5636 5635 5634 5634 5634 5634 5633 5633 5632 5633 5635 5636 5639
5751 5749 5746 5742 5739 5736 5733 5730 5727 5724 5721 5717 5714 5710 5706 5702 5697 5693 5689 5684 5678 5673 5668 5664 5659 5654 5650 5645 5642 5640 5638 5636 5634 5633 5631 5628 5624 5623 5622 5623 5626 5629 5631
5747 5743 5739 5735 5731 5728 5725 5722 5720 5717 5714 5711 5708 5704 5700 5696 5691 5686 5682 5678 5675 5670 5665 5661 5657 5653 5650 5646 5643 5638 5636 5634 5632 5629 5627 5625 5621 5616 5613 5614 5616 5620 5622
5737 5734 5731 5728 5725 5722 5719 5716 5713 5710 5708 5704 5700 5696 5693 5689 5684 5680 5676 5672 5668 5665 5661 5657 5653 5650 5647 5643 5640 5637 5633 5630 5628 5626 5623 5620 5618 5615 5613 5611 5611 5613 5614
5730 5726 5723 5719 5716 5714 5711 5709 5705 5702 5699 5696 5692 5688 5685 5681 5677 5672 5669 5665 5660 5657 5653 5650 5647 5644 5642 5639 5635 5632 5630 5627 5624 5621 5618 5616 5613 5611 5609 5607 5607 5607 5607
5721 5717 5714 5711 5708 5705 5703 5700 5698 5695 5691 5687 5683 5679 5675 5671 5667 5663 5660 5657 5652 5649 5645 5641 5638 5635 5633 5630 5628 5625 5623 5621 5619 5616 5614 5611 5609 5607 5605 5603 5601 5599 5599
5713 5709 5704 5701 5699 5696 5693 5691 5687 5685 5681 5677 5673 5668 5664 5661 5658 5654 5650 5645 5642 5639 5636 5632 5629 5626 5623 5619 5617 5615 5612 5610 5609 5607 5605 5602 5600 5598 5596 5595 5594 5592 5590
5702 5698 5694 5693 5691 5687 5682 5680 5677 5673 5669 5666 5660 5656 5653 5650 5646 5642 5639 5634 5629 5627 5624 5620 5618 5615 5613 5609 5607 5604 5602 5600 5597 5595 5593 5592 5589 5588 5586 5584 5581 5580 5578
5691 5688 5684 5683 5679 5674 5672 5669 5666 5662 5657 5653 5647 5645 5643 5639 5634 5630 5626 5622 5617 5615 5611 5607 5605 5603 5601 5598 5595 5592 5591 5588 5587 5584 5581 5579 5577 5575 5572 5570 5567 5564 5562
5680 5676 5674 5671 5667 5662 5659 5656 5653 5649 5645 5640 5635 5631 5628 5625 5621 5618 5614 5610 5606 5602 5599 5597 5594 5590 5588 5585 5583 5579 5576 5575 5572 5571 5568 5565 5563 5561 5558 5556 5554 5551 5549
5667 5663 5660 5657 5653 5649 5645 5641 5637 5633 5630 5627 5622 5617 5612 5609 5605 5600 5597 5593 5590 5587 5584 5582 5579 5576 5574 5570 5567 5565 5562 5560 5557 5554 5552 5550 5549 5547 5544 5541 5539 5536 5534
5655 5652 5649 5644 5639 5635 5631 5627 5622 5617 5613 5609 5605 5600 5595 5591 5587 5584 5582 5579 5576 5573 5570 5567 5562 5560 5557 5554 5550 5547 5544 5542 5540 5539 5536 5534 5531 5531 5530 5527 5524 5521 5519
5640 5634 5630 5625 5620 5615 5612 5610 5605 5600 5595 5590 5584 5580 5576 5572 5567 5562 5559 5556 5555 5553 5550 5549 5546 5543 5540 5537 5534 5531 5527 5525 5523 5522 5520 5518 5516 5514 5513 5511 5508 5507 5505
5622 5617 5613 5608 5601 5596 5592 5589 5582 5577 5572 5566 5562 5557 5553 5549 5546 5542 5538 5536 5532 5531 5528 5526 5524 5521 5519 5518 5516 5513 5510 5508 5506 5505 5504 5502 5501 5499 5498 5496 5494 5492 5489
5598 5593 5588 5583 5578 5573 5569 5565 5560 5555 5549 5544 5539 5535 5532 5527 5524 5521 5517 5514 5512 5510 5509 5508 5506 5504 5503 5500 5496 5494 5493 5491 5490 5489 5488 5487 5485 5483 5482 5481 5479 5477 5475
5575 5570 5565 5561 5556 5552 5546 5541 5537 5533 5528 5522 5518 5514 5510 5507 5504 5502 5498 5495 5492 5491 5490 5490 5487 5486 5485 5482 5479 5478 5476 5475 5474 5473 5472 5471 5470 5469 5468 5467 5465 5463 5462
5556 5551 5545 5541 5536 5531 5526 5522 5517 5513 5509 5506 5501 5497 5493 5488 5484 5481 5478 5475 5472 5471 5471 5469 5468 5468 5466 5463 5460 5460 5458 5457 5457 5456 5456 5456 5456 5454 5452 5452 5450 5450 5449